TimeMST,TemperatureF,Dew PointF,Humidity,Sea Level PressureIn,VisibilityMPH,Wind Direction,Wind SpeedMPH,Gust SpeedMPH,PrecipitationIn,Events,Conditions,WindDirDegrees,DateUTC
12:53 AM,12.9,9.0,84,30.10,10.0,SSW,3.5,-,N/A,,Overcast,200,2013-12-22 07:53:00
1:53 AM,9.0,6.1,88,30.13,10.0,Calm,Calm,-,N/A,,Mostly Cloudy,0,2013-12-22 08:53:00
2:53 AM,12.0,8.1,84,30.15,10.0,East,3.5,-,N/A,,Overcast,90,2013-12-22 09:53:00
3:53 AM,10.0,8.1,92,30.17,10.0,Calm,Calm,-,N/A,,Mostly Cloudy,0,2013-12-22 10:53:00
4:53 AM,8.1,5.0,87,30.19,10.0,NE,5.8,-,N/A,,Overcast,40,2013-12-22 11:53:00
5:53 AM,8.1,5.0,87,30.22,10.0,NE,3.5,-,N/A,,Overcast,40,2013-12-22 12:53:00
6:32 AM,8.6,6.8,92,30.04,10.0,NNW,3.5,-,N/A,,Overcast,340,2013-12-22 13:32:00
6:40 AM,8.6,6.8,92,30.03,10.0,ENE,4.6,-,N/A,,Overcast,60,2013-12-22 13:40:00
6:48 AM,8.6,6.8,92,30.03,10.0,Calm,Calm,-,N/A,,Overcast,0,2013-12-22 13:48:00
6:53 AM,9.0,6.1,88,30.24,10.0,Calm,Calm,-,N/A,,Overcast,0,2013-12-22 13:53:00
7:53 AM,10.0,8.1,92,30.26,10.0,Calm,Calm,-,N/A,,Overcast,0,2013-12-22 14:53:00
8:53 AM,12.9,9.0,84,30.26,9.0,Calm,Calm,-,N/A,,Clear,0,2013-12-22 15:53:00
9:53 AM,17.1,12.9,84,30.24,10.0,Calm,Calm,-,N/A,,Clear,0,2013-12-22 16:53:00
10:53 AM,18.0,12.0,78,30.25,10.0,NE,9.2,-,N/A,,Overcast,40,2013-12-22 17:53:00
11:53 AM,19.0,12.9,77,30.22,10.0,ENE,4.6,-,N/A,,Overcast,60,2013-12-22 18:53:00
12:53 PM,21.0,14.0,74,30.22,10.0,North,6.9,-,N/A,,Overcast,10,2013-12-22 19:53:00
1:53 PM,19.0,14.0,81,30.26,6.0,NE,12.7,-,0.00,,Haze,40,2013-12-22 20:53:00
2:02 PM,17.6,12.2,79,30.06,1.8,NE,11.5,-,0.00,Snow,Light Snow,40,2013-12-22 21:02:00
2:13 PM,17.6,14.0,86,30.07,0.5,NE,11.5,-,0.00,Fog-Snow,Light Snow,40,2013-12-22 21:13:00
2:25 PM,17.6,14.0,86,30.08,0.5,NNE,10.4,-,0.00,Fog-Snow,Snow,30,2013-12-22 21:25:00
2:53 PM,16.0,12.9,88,30.28,0.5,NNE,11.5,-,0.00,Fog-Snow,Snow,30,2013-12-22 21:53:00
3:23 PM,15.8,12.2,86,30.10,0.8,NNE,12.7,-,0.00,Snow,Light Snow,30,2013-12-22 22:23:00
3:31 PM,15.8,12.2,86,30.11,1.2,NNE,15.0,-,0.00,Snow,Light Snow,20,2013-12-22 22:31:00
3:53 PM,15.1,10.9,84,30.33,1.0,NNE,13.8,-,0.00,Snow,Light Snow,30,2013-12-22 22:53:00
4:26 PM,14.0,10.4,86,30.16,0.8,NNE,13.8,-,0.00,Snow,Light Snow,30,2013-12-22 23:26:00
4:30 PM,14.0,10.4,86,30.16,1.0,NNE,15.0,-,0.00,Snow,Light Snow,30,2013-12-22 23:30:00
4:53 PM,10.9,7.0,84,30.40,1.0,NE,15.0,-,0.00,Snow,Light Snow,40,2013-12-22 23:53:00
5:42 PM,10.4,6.8,85,30.21,0.8,ENE,10.4,-,0.00,Snow,Light Snow,60,2013-12-23 00:42:00
5:53 PM,10.0,6.1,84,30.43,1.0,ENE,10.4,-,0.00,Snow,Light Snow,60,2013-12-23 00:53:00
6:07 PM,10.4,6.8,85,30.22,1.2,NE,9.2,-,0.00,Snow,Light Snow,50,2013-12-23 01:07:00
6:34 PM,8.6,5.0,85,30.24,2.5,ENE,9.2,-,0.00,Snow,Light Snow,60,2013-12-23 01:34:00
6:37 PM,8.6,5.0,85,30.24,3.0,ENE,9.2,-,0.00,Snow,Light Snow,70,2013-12-23 01:37:00
6:53 PM,8.1,5.0,87,30.48,2.5,ENE,8.1,-,0.00,Snow,Light Snow,60,2013-12-23 01:53:00
7:03 PM,8.6,5.0,85,30.25,3.0,ENE,9.2,-,0.00,Snow,Light Snow,60,2013-12-23 02:03:00
7:23 PM,8.6,3.2,79,30.26,2.5,NE,6.9,-,0.00,Snow,Light Snow,40,2013-12-23 02:23:00
7:45 PM,6.8,3.2,85,30.28,2.5,NE,4.6,-,0.00,Snow,Light Snow,40,2013-12-23 02:45:00
7:53 PM,7.0,3.0,84,30.51,2.5,NNE,3.5,-,0.00,Snow,Light Snow,30,2013-12-23 02:53:00
8:19 PM,6.8,1.4,79,30.30,3.0,NE,3.5,-,0.00,Snow,Light Snow,40,2013-12-23 03:19:00
8:53 PM,6.1,1.9,83,30.52,7.0,ESE,3.5,-,0.00,,Overcast,110,2013-12-23 03:53:00
9:08 PM,6.8,1.4,79,30.31,8.0,Calm,Calm,-,N/A,,Overcast,0,2013-12-23 04:08:00
9:53 PM,6.1,1.9,83,30.54,7.0,Calm,Calm,-,N/A,,Overcast,0,2013-12-23 04:53:00
10:53 PM,7.0,3.0,84,30.54,8.0,Calm,Calm,-,N/A,,Overcast,0,2013-12-23 05:53:00
11:53 PM,7.0,1.9,80,30.54,10.0,South,3.5,-,N/A,,Overcast,180,2013-12-23 06:53:00